This demonstration page uses our WeatherBlox Daily Observations layout. Learn more.

Left ArrowRight Arrow

Hourly Observations for March 31, 2016

Temp ( °F °C ) Dew Point ( °F °C ) Humidity (%) Winds ( mph kmh ) Pressure ( in mb ) Visibility ( mi km ) Precip ( " mm )
12:54 am 00:54 Cloudy 50 10 46 7.8 86 86 N 15 24 29.50 999 8 13 0.00 0.00
1:54 am 01:54 Cloudy 49 9.4 46 7.8 90 90 N 9 15 29.49 999 7 11 0.00 0.00
2:22 am 02:22 Cloudy 48 9 45 7 87 87 NNW 12 19 29.53 1000 7 11 0.00 0.00
2:54 am 02:54 Cloudy 48 8.9 45 7.2 89 89 NW 8 13 29.50 999 7 11 0.00 0.00
3:50 am 03:50 Cloudy 48 9 45 7 87 87 NNW 13 20 29.53 1000 9 14 0.00 0.00
3:54 am 03:54 Cloudy 48 8.9 44 6.7 86 86 NNW 13 20 29.49 999 9 14 0.00 0.00
4:06 am 04:06 Cloudy 48 9 45 7 87 87 NNW 12 19 29.53 1000 9 14 0.00 0.00
4:54 am 04:54 Cloudy 47 8.3 43 6.1 86 86 N 12 19 29.49 999 10 16 0.00 0.00
5:50 am 05:50 Cloudy with Mist and Fog 46 8 43 6 87 87 NNW 8 13 29.56 1001 6 10 0.00 0.00
5:54 am 05:54 Cloudy with Mist and Fog 47 8.3 44 6.7 90 90 NNW 8 13 29.51 999 5 8 0.00 0.00
6:14 am 06:14 Cloudy with Mist and Fog 46 8 45 7 93 93 NNW 9 15 29.56 1001 6 10 0.00 0.00
6:16 am 06:16 Cloudy with Light Rain 46 8 45 7 93 93 NNW 9 15 29.56 1001 6 10 0.00 0.00
6:30 am 06:30 Cloudy 46 7.8 43 6.1 89 89 NW 13 20 29.56 1001 10 16 0.00 0.03
6:54 am 06:54 Cloudy 46 7.8 42 5.6 86 86 NNW 12 19 29.54 1000 10 16 0.00 0.03
7:45 am 07:45 Cloudy with Light Rain 44 6.7 40 4.4 85 85 NW 18 30 29.59 1002 8 13 0.00 0.03
7:54 am 07:54 Cloudy with Light Rain 44 6.7 40 4.4 85 85 NNW 21 33 29.58 1002 9 14 0.00 0.03
8:54 am 08:54 Mostly Cloudy 44 6.7 40 4.4 85 85 NNW 10 17 29.60 1002 10 16 0.01 0.25
9:35 am 09:35 Mostly Cloudy 47 8.3 41 5 80 80 NNW 10 17 29.59 1002 10 16 0.00 0.00
9:54 am 09:54 Mostly Cloudy 47 8.3 40 4.4 77 77 NW 15 24 29.60 1003 10 16 0.00 0.00
10:09 am 10:09 Mostly Cloudy 48 8.9 41 5 77 77 NW 10 17 29.59 1002 10 16 0.00 0.00
10:54 am 10:54 Partly Cloudy 52 11.1 40 4.4 64 64 NW 15 24 29.60 1003 10 16 0.00 0.00
11:54 am 11:54 Mostly Cloudy 55 12.8 38 3.3 53 53 NW 14 22 29.61 1003 10 16 0.00 0.00
12:54 pm 12:54 Mostly Cloudy 55 12.8 34 1.1 45 45 NW 16 26 29.61 1003 10 16 0.00 0.00
1:54 pm 13:54 Cloudy 55 12.8 35 1.7 47 47 NW 17 28 29.62 1003 10 16 0.00 0.00
2:54 pm 14:54 Cloudy 50 10 38 3.3 63 63 NW 21 33 29.66 1005 10 16 0.00 0.03
3:15 pm 15:15 Cloudy 48 8.9 37 2.8 66 66 NW 25 41 29.68 1005 10 16 0.00 0.00
3:32 pm 15:32 Cloudy 48 9 36 2 62 62 NW 23 37 29.68 1005 10 16 0.00 0.00
3:54 pm 15:54 Cloudy 49 9.4 34 1.1 56 56 NW 28 44 29.70 1006 10 16 0.00 0.00
4:54 pm 16:54 Cloudy 47 8.3 32 0 56 56 NW 23 37 29.73 1007 10 16 0.00 0.00
5:54 pm 17:54 Cloudy 48 8.9 32 0 54 54 NW 20 31 29.75 1007 10 16 0.00 0.00
6:54 pm 18:54 Cloudy 47 8.3 30 -1.1 52 52 WNW 17 28 29.77 1008 10 16 0.00 0.00
7:54 pm 19:54 Mostly Cloudy 46 7.8 28 -2.2 50 50 NW 17 28 29.78 1009 10 16 0.00 0.00
8:54 pm 20:54 Mostly Cloudy 44 6.7 28 -2.2 53 53 WNW 10 17 29.80 1009 10 16 0.00 0.00
9:54 pm 21:54 Cloudy 44 6.7 29 -1.7 55 55 W 8 13 29.80 1009 10 16 0.00 0.00
10:54 pm 22:54 Cloudy 44 6.7 29 -1.7 55 55 WNW 18 30 29.80 1009 10 16 0.00 0.00
11:54 pm 23:54 Cloudy 43 6.1 30 -1.1 60 60 WNW 18 30 29.80 1009 10 16 0.00 0.00

Powered by AerisWeather